Regional Weather Roundup
Issued by NWS

Home | Current Version | Previous Version | Text Only | Print | Product List | Glossary On
Versions: 1 2 3 4 5 6 7 8 9 10 11 12 13 14 15 16 17 18 19 20 21 22 23 24 25 26 27 28 29 30 31 32 33 34 35 36 37 38 39 40 41 42 43 44 45 46 47 48 49 50
000
ASUS43 KDTX 210101
RWRMI
MICHIGAN HOURLY REGIONAL WEATHER ROUNDUP
NATIONAL WEATHER SERVICE DETROIT/PONTIAC MI
900 PM EDT THU JUL 20 2017

NOTE: "FAIR" INDICATES FEW OR NO CLOUDS BELOW 12,000 FEET WITH NO
SIGNIFICANT WEATHER AND/OR OBSTRUCTION TO VISIBILITY.

MIZ047>049-052>055-059>063-066>070-074>076-081>083-210200-
SOUTHEAST LOWER MICHIGAN

CITY           SKY/WX    TMP DP  RH WIND       PRES   REMARKS
ADRIAN         CLEAR     79  71  76 SW3       29.96S
ALMA           PTCLDY    78  69  73 SW3       29.94S
ANN ARBOR      MOCLDY    79  71  76 S3        29.95R
BAD AXE        CLEAR     79  69  71 SW6       29.92S
CARO           CLEAR     78  69  74 SW5       29.92S
DETROIT CITY   PTCLDY    83  68  60 W7        29.93S
DETROIT        MOCLDY    83  70  64 SW8       29.95S
FLINT          CLEAR     79  69  71 SW3       29.94S
GROSSE ILE     PTCLDY    79  73  83 SW5       29.93S
HILLSDALE      CLEAR     79  70  73 CALM      29.97S
HOWELL         PTCLDY    79  70  72 CALM      29.95S

CITY           SKY/WX    TMP DP  RH WIND       PRES   REMARKS
JACKSON        MOCLDY    81  70  69 W3        29.96R
LAMBERTVILLE   CLEAR     80  70  71 SW3       29.95S
LANSING        CLEAR     80  69  69 W5        29.95S
LAPEER         FAIR      80  68  66 SW6       29.95S
MASON          CLEAR     79  70  74 NW3       29.96R
MONROE         PTCLDY    80  71  74 CALM      29.93S
MT. CLEMENS    PTCLDY    81  69  65 NW6       29.93R
PONTIAC        PTCLDY    81  69  67 SW5       29.94S
PORT HOPE        N/A     76  69  79 S3        29.89S
PORT HURON     CLEAR     79  68  69 CALM      29.93S
TRI CITIES     CLEAR     82  71  69 SW9       29.93R
MIDLAND        FAIR      81  69  67 CALM      29.91S
TROY           CLEAR     83  67  58 W6        29.95S
SAGINAW HB     CLEAR     79  70  73 SW6       29.92S
$$
MIZ043>046-050>051-056>058-064>065-071>073-077>080-210200-
SOUTHWEST LOWER MICHIGAN

CITY           SKY/WX    TMP DP  RH WIND       PRES   REMARKS
BATTLE CREEK   CLEAR     80  71  74 NW6       29.97R
BENTON HARBOR  CLEAR     77  67  71 CALM      29.96S
BIG RAPIDS     CLEAR     78  64  60 W12       29.95R
COLDWATER      CLEAR     79  71  76 CALM      29.96S
FREMONT        FAIR      77  66  68 W6        29.95S
HOLLAND        CLEAR     74  68  81 W5        29.97S
GRAND RAPIDS   PTCLDY    80  71  74 SW8       29.95S
IONIA          FAIR      79  69  70 SW5       29.94S
KALAMAZOO      CLEAR     80  68  66 W6        29.96S
LUDINGTON      CLOUDY    70  67  91 W5        29.95S
MARSHALL       CLEAR     79  73  81 W3        29.96R
MOUNT PLEASANT CLEAR     82  63  51 W3        29.92S
MUSKEGON       PTCLDY    73  68  84 SW5       29.96R
SOUTH HAVEN    CLEAR     76  69  79 CALM      29.96S
$$
MIZ016>042-210200-
NORTHERN LOWER MICHIGAN

CITY           SKY/WX    TMP DP  RH WIND       PRES   REMARKS
ALPENA         CLEAR     73  67  81 CALM      29.92R
BEAVER ISLAND  CLEAR     70  66  85 W5        29.94R
BELLAIRE       CLEAR     71  65  81 CALM      29.94S
CADILLAC       CLEAR     76  62  61 NW7       29.97R
CHARLEVOIX     CLEAR     74  63  68 SW6       29.96S
FRANKFORT      CLEAR     73  69  89 CALM      29.95S
GAYLORD        CLEAR     76  61  59 W5        29.96R
GRAYLING       CLEAR     73  61  65 W3        29.97R
HARBOR SPRINGS CLEAR     72  65  80 W3        29.93S
HOUGHTON LAKE  CLEAR     76  61  59 N3        29.96R
MANISTEE       CLEAR     72  67  84 W5        29.95S
OSCODA         CLEAR     72  67  82 NE6       29.90R
PELLSTON       CLEAR     74  64  71 W3        29.93R
ROGERS CITY    CLEAR     73  62  68 S3        29.92S
TRAVERSE CITY  CLEAR     77  63  61 CALM      29.93R
$$
MIZ007>008-015-210200-
EASTERN UPPER MICHIGAN

CITY           SKY/WX    TMP DP  RH WIND       PRES   REMARKS
KINROSS        CLEAR     66  59  78 NW10      29.92R
MACKINAC ISLAN CLEAR     70  65  82 W6        29.91R
NEWBERRY       CLEAR     67  61  80 NW5       29.94R
S. S. MARIE    CLEAR     68  57  68 W9        29.92R
MUNISING         N/A     69  65  86 CALM      29.93S
$$
MIZ004>006-011>014-085-210200-
CENTRAL UPPER MICHIGAN

CITY           SKY/WX    TMP DP  RH WIND       PRES   REMARKS
MANISTIQUE     CLEAR     72  61  68 NW6       29.93S
ESCANABA       CLEAR     79  66  64 NE6       29.93R
MENOMINEE      CLEAR     81  67  62 CALM      29.93R
SAWYER-GWINN   CLEAR     72  61  68 E3        29.97R
$$
MIZ001>003-009>011-084-210200-
WESTERN UPPER MICHIGAN

CITY           SKY/WX    TMP DP  RH WIND       PRES   REMARKS
IRON MOUNTAIN  CLEAR     77  59  53 NW6       29.95R
HOUGHTON       CLEAR     72  61  68 SW5       29.93F
COPPER HARBOR    N/A     62  56  80 VRB5      29.91S
IRONWOOD       CLEAR     77  65  66 SW3       29.97S
$$

ABBREVIATIONS USED IN REMARKS
   TC - TEMPERATURE IN CELSIUS
  WCI - WIND CHILL INDEX
   HX - HEAT INDEX
  VSB - VISIBILITY




USA.gov is the U.S. government's official web portal to all federal, state and local government web resources and services.